DECAYED

STARLINK-31204, 58731 (Decayed)

Orbit data source: Space-Track

STARLINK-31204, 58731 was a payload satellite owned by SpaceX/Seattle (US) in LEO that was launched on Sun, 07 Jan 2024 UTC via an FALCON 9 launch vehicle from the Air Force Eastern Test Range (AFETR). Payload-class satellites include a variety of spacecraft equipped with specific instruments for various scientific and technological missions. These include communications satellites like Starlink; space stations such as the ISS; scientific satellites like the Hubble; Earth observation satellites from companies like Planet Labs, Umbra, and HawkEye 360; GPS; miniature CubeSats for education and research; and military/defense satellites.

Not visible in the next 10 days
Identifier
58731, 2024-005D
Orbit
Decayed
Country
Flag of USUS
Related business
Manufacturer
SpaceX/Seattle
Mission
Decayed Commercial Communications
Bus & Motor
STARLINK V2M, Unknown motor
Mass
730 kg wet, ~700 kg dry
Launch date (UTC)
2024-01-07 (2 years ago)
Launch vehicle
FALCON 9
Launch site
Air Force Eastern Test Range (AFETR)
Object type
Payload
Rocket body
Debris
Shape & HBR
Box + 2 Pan, 17.7 m
Radar Cross Section
33.884 m², Large (>1 m²)

Expand to show TLE details & history
Last TLE update: 9 months ago

TLE from 9 months ago
0 STARLINK-31204
1 58731U 24005D   25255.55354214  .04742848  90238-5  16765-2 0  9994
2 58731  42.9836  42.6505 0031709 316.2913  43.5463 16.22636806 94407
Epoch: 2025-09-12T13:17Z
TLE epoch observation values (Epoch: 2025-09-12T13:17:06.040Z)
Latitude
-0.00006°
Longitude
-148.42433°
Altitude
197.053 km
Speed
7.799 km/s
True Right ascension
02h 50m 36s
True Declination
0° 00' 00"
Sunlit
Object was in full shadow at epoch
Visualization orbit readout
Latitude
Unknown
Longitude
Unknown
Altitude
Unknown
Speed
Unknown
Apparent Right ascension
Unknown
Apparent Declination
Unknown
Sunlit
N/A
Visualization observer readout
Local Sidereal Time
23:08:50
Azimuth
Unknown
Elevation
Unknown
Doppler factor
Unknown
Orbital elements
Apogee altitude
235.334 km
Perigee altitude
193.526 km
Semi-major axis
6,592.567 km
Eccentricity
0.00317
Inclination
42.9836°
RAAN
42.6505°
Arg. of periapsis
316.2913°
True anomaly
43.79735°
Mean anomaly
43.5463°
Eccentric anomaly
43.67175°
Mean motion
4.05472 °/min
Orbital period
88.79 mins
BSTAR
0.0016765
Loading maneuver chart data...
Computing Atmospheric mass density...
Loading historical data...
Loading historical data...
Loading historical data...
Loading historical data...
Loading historical data...
Loading historical data...
Loading historical data...

Documentation

Showing up to 5 results
|